Dewpoint
55 40 33 30 21 17 11 13 17 18 18 19 19 19 19 23 23 25 50 61 65 66 70 71 72 72 72 72 71 71 71 71 71 71 71 71 71 71 71 70 69 69 69 68 68 68 67 67 68
43 33 31 26 18 9 6 16 18 18 19 20 22 21 21 25 30 41 52 65 65 67 70 69 71 72 71 72 71 71 72 71 71 71 71 71 71 71 70 70 69 68 68 67 67 67 66 67 67
36 31 26 22 17 10 7 17 18 20 21 23 23 22 24 28 36 45 59 65 66 68 69 69 71 71 71 71 71 72 72 71 71 71 71 71 71 70 70 69 69 68 67 66 66 66 66 67 66
32 30 27 21 15 14 17 19 22 23 25 24 23 22 26 34 46 50 60 65 65 68 69 70 71 71 71 71 71 71 71 71 71 71 71 71 70 70 70 69 68 67 66 65 66 66 66 66 65
32 28 22 19 16 17 21 24 24 24 25 25 25 23 26 32 52 56 64 66 65 68 69 69 70 71 71 71 71 71 70 70 70 71 71 70 70 70 69 68 67 65 64 63 66 65 65 65 64
30 29 21 16 17 19 23 26 26 25 26 27 28 29 30 47 45 54 63 66 66 67 68 69 70 70 71 71 71 70 70 70 70 71 70 70 70 69 68 67 65 63 63 62 65 66 65 64 63
32 28 25 23 23 24 25 28 26 26 27 27 31 31 32 37 42 55 62 66 67 68 68 69 67 69 70 70 70 70 70 70 70 70 70 70 69 68 67 65 64 63 63 64 65 65 64 63 62
32 30 28 26 24 24 27 28 28 27 26 30 33 31 32 36 40 54 62 66 67 68 68 69 68 66 68 70 69 69 70 70 70 69 69 69 68 67 66 64 63 63 63 65 65 64 63 62 61
34 31 27 26 26 26 27 28 30 31 30 31 32 34 36 38 43 52 61 65 66 67 67 68 69 69 66 66 69 69 69 69 69 69 68 68 65 65 64 60 62 63 63 65 64 63 62 61 60
35 32 29 30 31 30 31 31 32 32 32 32 32 34 37 40 41 47 47 59 64 65 66 68 68 69 69 67 67 68 68 68 68 67 68 65 63 62 60 61 62 62 63 64 64 63 61 57 55
36 33 32 32 33 34 34 34 35 35 34 35 33 34 37 39 41 44 45 50 61 65 65 66 67 69 69 69 68 66 65 65 66 67 66 63 63 62 59 60 58 57 62 60 61 60 55 53 53
37 37 36 36 36 36 36 37 36 37 37 38 38 38 39 40 40 40 43 47 58 63 64 65 66 68 68 69 69 68 66 66 66 67 66 63 63 62 59 56 51 51 52 54 55 55 53 54 53
38 38 37 38 39 39 40 39 39 39 39 40 40 40 40 40 40 41 42 46 54 61 63 64 65 67 68 68 68 68 67 67 67 67 67 65 62 61 59 54 51 49 48 54 53 52 54 55 54
40 40 41 42 41 41 41 41 41 41 41 41 41 41 40 40 40 41 42 46 48 57 62 64 64 66 66 67 67 68 67 67 67 66 66 65 63 62 60 55 52 51 47 51 52 53 55 54 53
45 43 44 43 42 41 41 39 39 40 41 40 40 41 41 41 41 41 42 44 48 51 57 63 64 65 66 67 68 68 68 67 66 65 66 65 64 63 61 57 52 52 47 51 51 53 53 52 52
45 45 41 40 40 39 39 36 37 38 39 40 40 39 40 41 41 42 43 44 46 49 53 58 63 64 65 66 66 66 67 67 66 65 66 65 65 64 62 58 53 49 46 48 49 51 50 50 51
43 38 39 38 38 38 37 35 36 37 38 37 38 39 39 39 40 42 43 44 45 47 51 54 62 63 64 65 65 65 66 67 66 65 65 65 64 64 62 59 54 51 45 46 48 49 49 49 49
37 38 37 36 35 37 36 35 36 37 36 36 38 39 38 38 39 40 41 42 42 44 48 53 57 63 63 65 66 66 66 67 66 65 64 65 64 64 63 60 56 52 44 44 47 48 48 48 48
40 37 35 34 35 37 36 36 36 36 36 36 36 37 39 39 39 39 42 42 43 43 44 50 55 62 63 64 64 64 64 65 65 65 64 64 64 63 62 60 57 53 44 42 47 48 48 47 49
42 40 38 39 39 38 37 36 37 36 36 36 35 36 37 38 39 40 41 43 44 45 45 46 54 58 62 64 63 63 63 64 64 64 64 64 63 62 61 59 57 53 46 45 49 49 48 47 50
41 40 38 37 37 38 38 37 34 33 33 34 35 36 37 37 39 40 42 43 45 46 47 48 52 56 61 64 63 63 63 64 63 63 62 63 62 61 61 60 58 55 49 46 50 52 50 48 50
37 38 37 36 36 35 37 30 30 30 31 31 32 36 38 39 42 43 43 45 46 48 48 49 51 55 59 64 63 62 62 61 62 62 62 62 62 61 61 60 58 56 51 48 50 52 51 47 49
35 37 36 36 36 37 36 34 31 30 30 33 38 40 41 42 43 44 45 47 48 51 53 51 53 55 58 63 63 62 61 61 61 62 62 61 61 61 60 60 59 57 53 49 50 51 50 48 48
38 39 39 38 37 33 36 35 29 28 29 32 38 37 38 39 39 40 41 42 44 47 52 55 51 57 59 62 63 62 62 61 60 61 61 61 60 60 60 60 59 58 55 51 50 50 51 48 48
41 39 33 31 31 29 33 35 33 33 33 34 33 31 31 32 33 34 35 36 39 42 46 50 53 51 55 61 62 63 62 62 61 61 61 60 60 59 59 60 59 58 57 54 51 50 50 49 48
40 38 33 27 29 31 32 32 34 34 31 27 26 24 24 26 28 28 30 31 33 37 41 44 47 52 55 54 61 62 63 62 62 62 61 61 60 60 60 59 59 58 58 56 53 51 50 49 49
38 36 38 35 34 32 34 37 33 29 25 20 19 21 22 23 25 27 27 31 32 35 39 42 45 47 52 55 57 59 62 62 62 62 62 61 61 61 59 59 59 58 58 57 55 51 50 49 49
38 39 35 35 27 27 32 30 33 24 21 22 25 26 26 25 25 26 26 29 31 36 40 43 44 45 49 53 56 58 57 62 63 62 62 62 62 61 59 59 58 58 58 57 55 52 50 49 48
32 32 32 30 28 28 27 30 34 29 28 26 28 29 28 27 25 24 26 28 30 34 36 41 45 45 47 50 54 56 59 59 61 63 62 62 61 61 60 59 58 58 57 56 54 52 50 48 48
33 31 31 26 25 28 26 27 34 34 35 34 32 32 31 31 28 25 25 27 30 34 35 37 42 46 48 50 52 54 56 59 60 61 62 62 61 61 61 59 58 57 56 56 54 52 51 49 48
Wind_Speed
11 9 6 7 9 8 13 4 2 2 2 1 2 10 17 15 15 14 4 5 3 13 18 24 18 21 23 25 28 29 31 31 29 29 29 29 27 26 24 23 23 21 20 20 20 21 20 20 19
11 8 6 4 10 15 13 4 5 3 1 3 15 13 11 10 6 12 13 6 3 13 18 23 17 21 23 23 27 29 31 32 30 29 29 29 27 26 25 24 22 22 21 20 20 20 20 19 18
8 6 6 6 14 17 11 3 1 2 2 13 7 8 6 3 12 9 9 2 6 12 16 21 18 21 24 25 26 28 30 31 30 29 29 29 28 26 25 24 22 23 22 21 21 21 21 18 17
8 7 5 13 23 17 15 6 7 13 7 3 9 14 5 2 7 12 15 4 9 14 14 19 17 21 24 25 27 29 30 31 30 30 29 28 27 25 24 23 23 22 22 22 21 22 20 18 18
6 5 16 18 23 18 12 12 11 13 12 6 8 14 8 3 6 9 5 4 11 14 12 16 15 19 24 26 27 28 30 32 32 30 28 27 26 24 24 24 23 22 21 22 22 22 20 18 18
9 7 16 21 20 18 11 8 14 14 7 5 9 13 11 2 9 10 2 5 10 14 11 15 16 15 20 25 25 26 29 31 30 28 27 26 25 24 23 23 23 23 21 21 21 21 20 19 18
15 15 22 23 22 24 18 3 11 13 9 8 9 14 6 8 11 9 2 5 11 13 14 15 20 18 15 19 23 25 27 29 28 28 26 24 23 23 23 22 22 23 24 21 20 21 20 19 19
12 13 22 21 22 22 10 6 6 8 13 6 9 9 8 10 13 6 2 5 10 13 16 18 19 21 22 19 18 22 24 26 28 27 25 22 21 20 21 21 23 25 24 25 23 23 21 20 20
8 17 23 24 24 23 12 13 15 14 19 21 22 22 21 17 11 8 4 6 10 13 17 18 18 19 23 23 20 18 19 23 25 26 25 23 20 20 20 19 22 24 25 26 26 24 23 21 20
17 21 26 22 22 22 25 25 25 24 26 30 26 24 23 17 16 15 13 12 15 16 18 19 18 18 19 20 23 23 22 22 23 23 24 22 19 20 21 18 20 22 24 26 26 27 26 23 18
13 26 24 25 24 27 30 33 28 29 37 31 32 26 24 22 19 19 18 16 19 20 19 21 21 19 19 18 19 20 21 21 22 22 25 22 20 18 16 17 18 19 23 21 23 24 23 19 18
26 25 27 28 30 31 35 33 35 31 45 33 33 32 28 27 26 24 21 17 18 23 24 23 24 23 23 17 19 20 21 20 20 24 27 22 20 21 19 19 20 19 21 22 21 21 20 19 17
28 32 32 28 26 36 32 34 37 47 35 34 36 34 33 30 29 25 23 22 19 23 24 25 25 24 26 22 20 21 21 21 20 21 23 21 23 22 21 20 19 19 20 22 22 21 19 18 17
28 32 34 31 38 38 37 36 32 51 28 34 31 32 29 27 28 27 26 26 25 23 24 25 28 28 27 24 27 23 22 21 20 21 23 24 21 22 22 21 20 19 20 22 21 21 19 18 17
24 31 29 29 34 32 32 40 43 47 33 29 25 26 24 25 26 29 29 29 29 26 25 28 30 29 31 33 28 25 24 24 22 23 24 26 25 25 24 22 22 18 20 22 20 20 20 18 18
16 17 27 18 23 26 19 35 25 24 18 21 20 20 20 20 22 25 27 30 30 30 29 27 26 30 32 30 27 27 24 24 24 25 26 26 25 26 24 23 22 21 20 22 22 23 22 20 19
11 34 35 32 20 26 30 36 20 15 13 19 20 19 20 19 20 22 24 26 29 30 31 29 30 31 33 30 27 28 25 23 23 23 25 29 26 25 24 22 22 23 21 23 23 22 23 23 21
30 28 26 29 14 17 32 40 30 32 31 27 28 28 28 26 25 25 24 26 26 28 30 32 29 31 31 27 25 22 22 21 21 24 26 29 27 28 26 24 23 24 23 23 23 24 22 22 21
35 41 44 29 29 31 34 51 34 33 35 33 31 29 30 31 29 23 24 24 24 26 28 31 31 32 27 26 26 25 27 25 24 25 28 29 28 29 28 22 23 24 26 25 24 24 26 23 22
31 34 37 35 26 28 34 59 36 31 41 41 36 31 31 29 28 24 20 21 22 24 27 30 31 31 31 26 26 25 26 25 25 22 24 28 30 30 30 26 26 27 25 25 26 27 26 24 25
34 39 35 36 29 32 32 60 33 35 28 25 27 30 30 28 24 18 16 12 11 15 21 25 29 30 31 28 24 22 21 20 20 22 23 27 31 31 31 29 27 27 24 27 30 30 31 27 27
40 35 38 36 24 23 16 45 28 27 26 18 18 16 20 16 3 8 11 9 7 5 6 15 24 27 28 28 25 29 24 23 23 23 24 26 31 31 33 32 30 29 26 27 30 28 30 26 32
48 28 36 33 29 30 36 28 18 15 10 3 6 8 7 7 8 8 9 8 6 4 3 4 14 23 26 26 26 27 27 26 23 23 25 26 26 30 32 32 31 30 28 28 31 31 33 29 29
44 37 38 31 27 29 48 34 28 28 28 16 13 11 10 12 9 6 5 4 7 7 5 5 6 15 20 21 28 28 29 27 25 25 23 24 24 27 31 33 31 31 31 30 31 33 34 31 29
31 25 23 22 26 33 35 26 43 3 8 7 19 16 10 8 10 7 4 3 4 6 6 3 4 8 14 20 27 28 30 29 29 27 27 27 24 25 29 33 33 32 34 33 31 34 34 36 33
24 34 19 12 12 18 30 15 23 8 16 18 15 13 12 10 9 9 6 4 4 4 5 4 3 2 6 13 21 28 29 27 29 28 22 25 27 27 29 30 32 30 30 31 31 30 32 32 32
44 30 36 31 32 18 5 7 15 14 21 20 14 12 11 10 9 8 7 7 6 6 6 4 4 4 3 6 11 20 27 33 30 31 29 26 26 24 28 31 34 32 31 30 29 30 33 33 34
8 4 21 13 17 23 16 32 12 16 19 16 16 14 13 12 10 9 9 9 9 8 7 7 6 6 7 8 8 11 22 26 30 28 30 28 25 27 28 32 33 32 33 33 32 30 28 30 30
3 2 1 1 3 14 22 3 10 16 13 14 12 12 12 13 14 14 13 12 11 11 11 10 8 8 8 8 8 10 13 20 24 28 29 29 26 25 26 31 32 34 32 32 33 33 33 34 32
3 5 5 6 5 3 1 3 7 9 6 12 13 11 15 19 16 13 11 10 11 13 13 13 12 10 10 11 11 10 13 13 18 24 22 27 29 27 28 27 31 35 34 33 35 36 34 36 37
Wind_Direction
156 185 233 234 247 238 261 259 330 261 248 138 310 284 296 293 276 283 353 347 304 163 165 163 152 146 147 151 153 152 151 149 154 153 152 149 148 146 143 142 139 141 139 139 135 128 125 126 118
168 171 219 265 254 251 278 122 219 16 80 266 295 275 273 282 315 291 317 4 212 160 164 168 154 148 154 153 154 154 153 150 155 154 153 151 150 149 146 144 147 145 143 141 140 132 130 127 119
179 208 236 243 256 254 283 150 342 345 237 297 274 259 286 272 343 305 349 328 160 153 172 165 156 150 156 161 156 155 153 151 153 154 156 154 152 151 148 143 144 142 143 143 143 137 134 128 118
180 195 223 239 254 254 267 276 279 299 303 288 276 279 209 304 344 340 316 212 173 155 180 142 158 153 158 159 160 158 154 151 152 156 158 155 153 152 147 143 144 144 146 145 144 138 135 125 120
199 238 250 243 260 272 271 273 287 286 300 278 272 267 259 285 340 350 328 198 176 151 172 168 168 157 158 161 160 158 157 155 156 155 156 154 153 152 148 145 146 146 146 144 143 139 133 126 122
211 268 246 255 259 264 251 268 280 286 304 237 258 277 281 131 350 357 327 192 170 160 169 182 170 162 159 161 160 156 157 156 156 152 154 156 155 151 149 147 147 145 143 141 144 138 133 129 122
246 245 261 270 272 277 279 325 271 286 279 247 295 275 270 237 7 345 327 192 179 172 168 171 184 178 162 159 161 158 156 153 153 151 154 158 153 152 150 150 146 142 140 140 145 140 135 130 125
246 261 263 256 265 271 321 282 275 286 280 303 262 258 259 311 338 329 292 200 198 183 176 172 182 187 184 175 161 158 157 153 152 151 152 151 148 150 151 149 147 145 144 143 144 140 136 131 126
229 248 253 257 259 271 270 276 278 288 274 274 270 263 278 296 300 280 234 210 199 196 184 180 177 185 189 187 175 161 159 154 150 149 146 150 166 167 160 166 150 148 147 146 143 138 134 128 126
220 241 255 268 275 278 289 288 285 283 277 270 268 260 264 272 268 268 265 232 207 197 191 183 179 181 183 186 184 182 176 174 172 170 166 168 170 180 180 151 150 149 150 145 143 139 136 149 148
233 249 270 270 274 281 283 279 280 281 271 265 269 273 273 269 258 261 266 242 215 202 196 190 183 184 180 176 183 187 188 186 186 176 178 175 171 175 178 159 160 157 156 151 149 146 159 160 161
255 259 259 269 278 280 274 282 280 271 265 275 274 273 270 263 257 254 257 243 218 202 201 194 188 187 185 173 177 186 186 186 189 180 183 175 178 175 178 173 172 169 172 161 165 169 173 166 166
263 268 272 273 274 269 277 275 277 270 269 275 270 267 260 254 253 252 248 239 217 207 201 195 191 190 189 184 181 180 186 188 182 175 186 174 184 181 180 176 175 180 178 172 172 174 172 171 167
267 278 279 281 274 276 276 275 273 266 269 266 265 262 256 250 246 245 239 232 224 211 203 199 197 193 194 189 190 188 183 183 177 176 184 183 187 181 179 179 180 184 184 178 176 173 175 174 168
275 275 277 265 267 266 277 273 263 270 269 259 258 253 254 247 245 243 239 230 227 221 210 199 201 198 196 199 197 194 190 184 183 180 187 187 189 185 183 182 183 183 189 178 177 172 174 172 171
263 266 271 276 266 264 252 274 272 269 267 254 260 257 255 250 242 241 239 235 226 223 218 205 202 202 202 201 199 200 193 193 183 183 189 189 191 184 185 187 183 184 185 182 178 176 174 174 174
212 267 264 275 265 268 256 269 274 281 282 267 263 256 251 243 241 237 233 232 230 226 223 216 204 206 204 205 203 203 199 189 193 183 187 188 190 186 189 192 187 177 185 185 178 181 177 175 176
252 252 253 256 266 255 272 270 265 263 269 263 261 261 256 251 242 238 231 231 232 230 224 224 212 210 207 204 205 201 200 193 188 191 190 185 187 188 191 191 187 181 185 187 183 181 182 177 174
247 261 269 273 293 293 275 275 271 275 278 273 262 251 248 251 250 237 235 237 233 236 229 220 219 209 206 201 197 196 196 192 191 194 191 187 187 185 186 185 179 186 190 189 184 180 178 178 171
240 255 259 274 277 272 275 275 275 271 274 273 265 254 246 245 243 240 235 237 235 232 229 227 219 214 208 200 200 202 203 201 202 196 195 192 189 188 187 182 180 187 188 186 183 181 178 182 175
232 239 258 271 278 271 280 280 280 268 255 259 258 250 248 243 234 227 218 214 220 236 231 226 220 217 209 203 201 201 201 205 201 199 194 194 191 188 190 188 185 186 189 186 184 184 181 178 180
248 236 254 263 265 258 227 278 283 288 278 272 243 242 227 219 215 174 192 191 189 188 233 241 224 220 211 199 200 195 195 196 201 201 199 197 194 190 191 190 187 186 188 189 188 185 184 178 188
247 252 255 250 249 251 247 264 272 236 227 341 98 117 130 152 158 161 148 140 121 114 118 225 235 220 214 199 199 201 204 205 201 204 203 199 198 196 195 194 192 189 191 193 189 189 193 193 190
250 248 252 261 238 241 245 231 273 243 257 230 134 124 134 132 125 114 102 108 106 94 85 120 184 225 219 206 202 202 209 208 205 199 202 200 197 199 197 196 195 195 193 194 196 195 196 197 198
240 242 243 234 224 235 247 227 238 256 35 256 147 136 127 120 112 102 67 59 63 71 72 85 134 192 223 212 213 210 209 212 214 211 206 206 202 201 202 199 197 198 198 198 196 198 200 202 200
217 212 221 241 211 241 231 221 215 2 120 96 113 114 117 109 100 93 80 33 23 42 47 27 5 182 199 229 221 215 216 217 219 215 207 209 207 199 200 202 203 202 205 203 198 203 204 205 207
230 223 234 245 260 276 239 224 204 96 108 107 93 95 89 73 72 62 44 41 20 14 25 15 345 323 272 233 234 244 222 221 219 219 216 212 208 204 199 198 202 201 199 201 200 204 206 204 209
237 312 219 204 238 239 228 234 218 141 125 99 76 55 44 42 32 25 27 14 12 5 357 355 346 340 321 295 269 246 244 233 223 221 221 218 214 208 195 199 201 203 202 197 196 204 208 212 208
49 201 346 303 290 241 242 232 4 122 107 93 71 42 25 16 9 2 4 3 358 350 353 355 351 335 322 310 302 288 279 248 236 224 219 218 213 204 199 197 197 201 203 201 200 201 201 202 208
195 182 171 258 156 243 133 153 153 116 67 34 17 11 2 349 345 348 357 0 346 341 339 344 346 343 323 314 307 304 297 282 254 234 227 216 212 208 203 195 198 199 200 199 199 203 206 204 205